Flag for Canada Weather past 2 weeks in Windsor, Ontario, Canada

Now
63 °F

Partly cloudy.


Feels Like: 63 °F
Forecast: 60 / 74 °F
Wind: 7 mph from West

Location: Windsor Weather Station

Current Time: Jul 29, 2014 at 11:44:32 PM

Latest Report: Jul 29, 2014 at 11:00 PM


Visibility: 15 mi

Pressure: 29.97 "Hg

Humidity: 83%

Dew point: 57 °F

Location of WindsorLocation

Historic Weather in Windsor — Graph

°F

Windsor temperature yesterday

Maximum temperature yesterday: 68 °F (at 1:00 PM)
Minimum temperature yesterday: 57 °F (at 10:00 PM)
Average temperature yesterday: 63 °F

Past Weeks' High & Low Weather Summary

 TemperatureHumidityPressure
High88 °F (Jul 22, 7:00 PM)100% (Jul 20, 1:00 AM)30.23 "Hg (Jul 20, 1:00 AM)
Low54 °F (Jul 29, 1:00 AM)36% (Jul 17, 3:00 PM)29.57 "Hg (Jul 27, 5:00 PM)
Average68 °F71%29.98 "Hg
* Reported Jul 14 10:00 PM — Jul 29 10:00 PM, Windsor, Weather by CustomWeather, © 2014

Note: Actual official high and low records may vary slightly from our data, if they occured in-between our weather recording intervals... More about our weather records

Advertising

Windsor weather history for previous 24 hours

 ConditionsComfort  
Time TempWeatherWind HumidityBarometerVisibility
10:00 PM
Jul 29
64 °FOvercast.8 mph83%29.97 "Hg15 mi
9:00 PM63 °FOvercast.2 mph88%29.96 "Hg15 mi
8:00 PM64 °FBroken clouds.2 mph78%29.95 "Hg12 mi
7:00 PM66 °FMostly cloudy.6 mph83%29.96 "Hg15 mi
6:00 PM70 °FBroken clouds.14 mph60%29.95 "Hg15 mi
5:00 PM70 °FBroken clouds.13 mph60%29.95 "Hg15 mi
4:00 PM72 °FPartly sunny.16 mph53%29.96 "Hg15 mi
3:00 PM70 °FBroken clouds.14 mph57%29.97 "Hg15 mi
2:00 PM70 °FMostly cloudy.12 mph57%29.98 "Hg15 mi
1:00 PM68 °FPartly sunny.10 mph56%29.99 "Hg15 mi
12:00 PM66 °FBroken clouds.10 mph60%30.01 "Hg15 mi
11:00 AM66 °FPassing clouds.7 mph56%30.00 "Hg15 mi
10:00 AM64 °FPassing clouds.10 mph60%30.01 "Hg15 mi
9:00 AM61 °FPassing clouds.7 mph68%30.00 "Hg15 mi
8:00 AM57 °FPassing clouds.8 mph72%30.00 "Hg15 mi
7:00 AM55 °FPassing clouds.8 mph77%29.99 "Hg15 mi
6:00 AM55 °FPassing clouds.7 mph77%29.98 "Hg15 mi
5:00 AM55 °FPassing clouds.7 mph77%29.98 "Hg15 mi
4:00 AM55 °FPassing clouds.7 mph77%29.98 "Hg15 mi
3:00 AM55 °FPassing clouds.7 mph77%29.98 "Hg15 mi
2:00 AM55 °FPassing clouds.7 mph77%29.99 "Hg15 mi
1:00 AM54 °FPassing clouds.6 mph77%29.99 "Hg15 mi
12:00 AM55 °FPassing clouds.6 mph72%29.99 "Hg15 mi
11:00 PM
Jul 28
57 °FPassing clouds.8 mph72%30.00 "Hg15 mi
Weather by CustomWeather, © 2014

See weather overviewHow to use our weather pages